Regional Weather Roundup
Issued by NWS

Home | Current Version | Previous Version | Text Only | Print | Product List | Glossary Off
Versions: 1 2 3 4 5 6 7 8 9 10 11 12 13 14 15 16 17 18 19 20 21 22 23 24 25 26 27 28 29 30 31 32 33 34 35 36 37 38 39 40 41 42 43 44 45 46 47 48 49 50

000
ASUS43 KFSD 290202
RWRSD

WEATHER ROUNDUP FOR SOUTH DAKOTA
NATIONAL WEATHER SERVICE SIOUX FALLS SD
900 PM CDT SUN MAY 28 2017

NOTE: "FAIR" INDICATES FEW OR NO CLOUDS BELOW 12,000 FEET WITH NO
SIGNIFICANT WEATHER AND/OR OBSTRUCTIONS TO VISIBILITY.


SDZ001>005-009-010-012>017-290300-
NORTHWEST AND NORTH CENTRAL SOUTH DAKOTA

CITY           SKY/WX    TMP DP  RH WIND       PRES   REMARKS
BUFFALO          N/A     64  34  32 N16       29.97R
FAITH            N/A     65  33  30 N17       29.97R
MOBRIDGE       CLEAR     66  36  32 N15       29.89R
$$

SDZ012>016-024>037-041>051-057-063-072>074-290300-
SOUTHWEST AND SOUTH CENTRAL SOUTH DAKOTA

CITY           SKY/WX    TMP DP  RH WIND       PRES   REMARKS
RAPID CTY ARPT PTCLDY    64  42  44 NW14      30.04R
PIERRE         CLOUDY    67  44  43 NW9       29.89R
CUSTER         CLOUDY    54  36  50 W8G18     30.15R
ELLSWORTH AFB  CLOUDY    62  44  51 W12       30.03R
PHILIP         MOCLDY    65  45  48 W6        29.96R
PINE RIDGE     CLOUDY    53  51  93 SW8       30.08F
SPEARFISH      FAIR      61  41  48 W14G23    30.09S
WINNER         FAIR      64  47  53 W13       29.94S
$$

SDZ004>011-016>023-039-040-290300-
NORTHEAST SOUTH DAKOTA

CITY           SKY/WX    TMP DP  RH WIND       PRES   REMARKS
ABERDEEN       CLEAR     60  41  49 N8        29.87R
WATERTOWN      PTCLDY    53  48  83 W7        29.85S
BROOKINGS      CLOUDY    55  51  86 SW10      29.86S
SISSETON         N/A     57  46  66 N18G28    29.81R
$$

SDZ017-020-022-023-036>040-048>070-290300-
SOUTHEAST SOUTH DAKOTA

CITY           SKY/WX    TMP DP  RH WIND       PRES   REMARKS
SIOUX FALLS    MOCLDY    55  49  80 NE7       29.87F
HURON          PTCLDY    59  48  67 NE9       29.86R
MITCHELL       PTCLDY    70  40  33 N21G28    29.87R
YANKTON        MOCLDY    68  44  42 W10       29.87R
$$

ABBREVIATIONS USED IN REMARKS
   TC - TEMPERATURE IN CELSIUS
  WCI - WIND CHILL INDEX
   HX - HEAT INDEX
  VSB - VISIBILITY





USA.gov is the U.S. government's official web portal to all federal, state and local government web resources and services.